星链-34986(STARLINK-34986)

导读

STARLINK-34986是美国SpaceX公司星链(Starlink)星座的低轨通信卫星,于2025年11月11日发射入轨。星链星座旨在为全球提供宽带互联网接入服务,该卫星采用平板设计,搭载Ku/Ka波段通信载荷与氪工质霍尔推进器,具备自主避撞能力,设计寿命5-7年,退役后将主动离轨并在大气层烧毁。

基本信息
目录编号:
66446
目录名称:
STARLINK-34986
国际标识:
2025-259AA
轨道中心:
EARTH
卫星名称:
星链-34986
卫星全名:
星链-34986(STARLINK-34986)
卫星状态:
在轨 (已飞行304 天)
发射日期:
2025-11-11 UTC
国别 :
美国 (US)
星等 :
--
该卫星已列入 空间交会检测服务 Space Conjunction Data Service (SCDS) ,当前飞行风险评估等级: 高风险
轨道信息
数据来源 国际轨道数据 AOE轨道数据
星历时间 2026-09-10T18:34:50+0800
22小时前
查看轨道信息
2026-09-10T06:00:00+0800
1天前
查看轨道信息
半长轴 6861.182km 6861.238km
偏心率 0.0001542 0.0002131
轨道倾角 43.000° 43.004°
近地点辐角 281.123° 281.548°
升交点赤经 311.223° 314.187°
平近点角 78.945° 72.413°
近地点 481.987km 481.638km
远地点 484.103km 484.564km
周期 94.267分钟 94.268分钟
每日圈数 15.275817 15.27563
详细信息
固有亮度:
5
最大亮度:
2.5
卫星平台:
Starlink V1.0
覆盖范围:
全球
运营商:
太空探索技术公司
运营商所在国:
美国
制造商(研发单位):
太空探索技术公司
制造商所在国:
美国
使用方式:
暂无
卫星简介
Starlink 计划是 SpaceX 推出的全球卫星互联网项目,通过发射低轨道卫星,为全球尤其是偏远地区提供高速、低延迟的互联网服务。自 2019 年起,Starlink 已部署数千颗卫星,旨在缩小全球数字鸿沟,推动互联网普及。该项目还为军事、航空等行业提供通信支持,带来广泛经济效益。
2D轨道图
3D轨道图
轨道高度分析图
轨道倾角分析图
轨道综合分析图
查看轨道综合分析图
交会数据列表
事件ID 空间交会对象 最接近时刻(TCA) 交会距离 交会风险概率(CRP) 交会风险指数(CRI) 操作
CDM_260913-071205-669806-644621
2026-09-13T
07:12:38+0000
0.295 km
中距离
1.884042E-4 高风险 0.81
CDM_260913-033605-969706-644621
2026-09-13T
03:36:05+0000
0.912 km
远距离
2.804562E-5 中风险 0.64
CDM_260913-183005-969706-644621
2026-09-13T
18:30:34+0000
1.146 km
极远距离
1.276923E-5 中风险 0.57
CDM_260913-054106-250906-644621
2026-09-13T
05:41:17+0000
0.808 km
远距离
1.158597E-5 中风险 0.56
CDM_260913-045406-250906-644621
2026-09-13T
04:54:12+0000
0.809 km
远距离
1.156042E-5 中风险 0.56
CDM_260913-075905-669806-644621
2026-09-13T
07:59:42+0000
0.947 km
远距离
6.759231E-6 低风险 0.52
CDM_260913-032006-250906-644621
2026-09-13T
03:20:03+0000
1.014 km
极远距离
5.354746E-6 低风险 0.5
CDM_260913-051005-969706-644622
2026-09-13T
05:10:15+0000
1.612 km
极远距离
4.078958E-6 低风险 0.47
CDM_260913-042305-864706-644622
2026-09-13T
04:23:16+0000
1.768 km
极远距离
2.535993E-6 低风险 0.43
CDM_260913-093406-404406-644621
2026-09-13T
09:34:18+0000
2.133 km
极远距离
1.607006E-6 低风险 0.39
与全量物体交会距离演化趋势
与全量物体交会风险概率演化趋势